| time (UTC) | temp F | wind direction | speed MPH | gust MPH | rain 1hr in | rain 24hr in | rain mn in | humidity % | barometer mb |
| 20260506173257 | 69 | 102 | 2.0 | 3.0 | 0.00 | 0.00 | 0.00 | 81 | 1011.5 |
| 20260506172754 | 69 | 131 | 0.0 | 2.0 | 0.00 | 0.00 | 0.00 | 82 | 1011.5 |
| 20260506172251 | 67 | 80 | 1.0 | 2.0 | 0.00 | 0.00 | 0.00 | 83 | 1011.6 |
| 20260506171748 | 67 | 38 | 1.0 | 2.0 | 0.00 | 0.00 | 0.00 | 84 | 1011.6 |
| 20260506171245 | 67 | 43 | 2.0 | 2.0 | 0.00 | 0.00 | 0.00 | 83 | 1011.7 |
| 20260506170743 | 66 | 80 | 1.0 | 2.0 | 0.00 | 0.00 | 0.00 | 84 | 1011.8 |
| 20260506170239 | 66 | 82 | 0.0 | 2.0 | 0.00 | 0.00 | 0.00 | 84 | 1012.1 |
| 20260506165738 | 65 | 36 | 2.0 | 3.0 | 0.00 | 0.00 | 0.00 | 85 | 1012.2 |
| 20260506165234 | 65 | 97 | 0.0 | 0.0 | 0.00 | 0.00 | 0.00 | 87 | 1012.5 |
| 20260506164731 | 64 | 160 | 3.0 | 5.0 | 0.00 | 0.00 | 0.00 | 88 | 1012.7 |
| 20260506164228 | 63 | 162 | 2.0 | 3.0 | 0.00 | 0.00 | 0.00 | 89 | 1012.6 |
| 20260506163725 | 62 | 77 | 1.0 | 2.0 | 0.00 | 0.00 | 0.00 | 91 | 1012.3 |
| 20260506163220 | 61 | 89 | 0.0 | 0.0 | 0.00 | 0.00 | 0.00 | 95 | 1012.2 |
| 20260506162716 | 60 | 76 | 2.0 | 3.0 | 0.00 | 0.00 | 0.00 | 96 | 1013.0 |
| 20260506162214 | 60 | 71 | 0.0 | 0.0 | 0.00 | 0.00 | 0.00 | 96 | 1013.4 |
| 20260506161711 | 60 | 36 | 0.0 | 2.0 | 0.00 | 0.00 | 0.00 | 96 | 1014.0 |
| 20260506161208 | 60 | 72 | 3.0 | 3.0 | 0.00 | 0.00 | 0.00 | 95 | 1013.6 |
| 20260506160706 | 60 | 59 | 2.0 | 3.0 | 0.00 | 0.00 | 0.00 | 95 | 1013.5 |
| 20260506160202 | 60 | 22 | 4.0 | 8.0 | 0.00 | 0.00 | 0.00 | 95 | 1013.6 |
| 20260506155701 | 61 | 80 | 4.0 | 5.0 | 0.00 | 0.00 | 0.00 | 94 | 1014.0 |
| 20260506155158 | 61 | 25 | 7.0 | 11.0 | 0.00 | 0.00 | 0.00 | 94 | 1013.6 |
| 20260506153305 | 64 | 11 | 4.0 | 6.0 | 0.00 | 0.00 | 0.00 | 94 | 1012.9 |
| 20260506152802 | 64 | 55 | 2.0 | 2.0 | 0.00 | 0.00 | 0.00 | 94 | 1012.5 |
| 20260506152259 | 64 | 67 | 3.0 | 5.0 | 0.00 | 0.00 | 0.00 | 94 | 1012.0 |
| 20260506151758 | 64 | 30 | 3.0 | 6.0 | 0.00 | 0.00 | 0.00 | 95 | 1012.2 |
| 20260506151254 | 64 | 29 | 3.0 | 5.0 | 0.00 | 0.00 | 0.00 | 94 | 1012.1 |
| 20260506150751 | 65 | 77 | 3.0 | 5.0 | 0.00 | 0.00 | 0.00 | 94 | 1011.8 |
| 20260506150248 | 66 | 85 | 3.0 | 5.0 | 0.00 | 0.00 | 0.00 | 93 | 1011.7 |
| 20260506145745 | 67 | 22 | 3.0 | 5.0 | 0.00 | 0.00 | 0.00 | 92 | 1011.7 |
| 20260506145241 | 69 | 13 | 3.0 | 5.0 | 0.00 | 0.00 | 0.00 | 89 | 1011.2 |
| 20260506144739 | 72 | 60 | 1.0 | 3.0 | 0.00 | 0.00 | 0.00 | 87 | 1011.1 |
| 20260506144236 | 78 | 31 | 2.0 | 5.0 | 0.00 | 0.00 | 0.00 | 87 | 1011.2 |
| 20260506143733 | 78 | 135 | 2.0 | 3.0 | 0.00 | 0.00 | 0.00 | 90 | 1010.2 |
| 20260506143231 | 78 | 146 | 2.0 | 3.0 | 0.00 | 0.00 | 0.00 | 91 | 1010.0 |
| 20260506142729 | 78 | 99 | 1.0 | 2.0 | 0.00 | 0.00 | 0.00 | 91 | 1010.1 |
| 20260506142227 | 78 | 124 | 1.0 | 2.0 | 0.00 | 0.00 | 0.00 | 91 | 1010.2 |
| 20260506141725 | 78 | 138 | 1.0 | 2.0 | 0.00 | 0.00 | 0.00 | 92 | 1010.1 |
| 20260506141223 | 77 | 93 | 0.0 | 2.0 | 0.00 | 0.00 | 0.00 | 92 | 1010.1 |
| 20260506140720 | 77 | 96 | 1.0 | 2.0 | 0.00 | 0.00 | 0.00 | 93 | 1010.2 |
| 20260506140217 | 77 | 131 | 0.0 | 0.0 | 0.00 | 0.00 | 0.00 | 93 | 1010.5 |
| 20260506135713 | 77 | 105 | 0.0 | 0.0 | 0.00 | 0.00 | 0.00 | 94 | 1010.2 |
| 20260506135210 | 77 | 107 | 0.0 | 0.0 | 0.00 | 0.00 | 0.00 | 94 | 1009.9 |
| 20260506134707 | 76 | 100 | 0.0 | 0.0 | 0.00 | 0.00 | 0.00 | 95 | 1009.9 |
| 20260506134203 | 76 | 100 | 0.0 | 0.0 | 0.00 | 0.00 | 0.00 | 95 | 1010.0 |
| 20260506133700 | 76 | 100 | 0.0 | 0.0 | 0.00 | 0.00 | 0.00 | 95 | 1009.9 |
| 20260506133157 | 76 | 101 | 0.0 | 2.0 | 0.00 | 0.00 | 0.00 | 95 | 1009.7 |
| 20260506132654 | 76 | 99 | 0.0 | 0.0 | 0.00 | 0.00 | 0.00 | 95 | 1009.5 |
| 20260506132151 | 75 | 98 | 0.0 | 0.0 | 0.00 | 0.00 | 0.00 | 96 | 1009.7 |
| 20260506131649 | 75 | 112 | 1.0 | 2.0 | 0.00 | 0.00 | 0.00 | 96 | 1009.8 |
| 20260506131144 | 75 | 80 | 1.0 | 2.0 | 0.00 | 0.00 | 0.00 | 97 | 1009.8 |
| 20260506130641 | 75 | 117 | 0.0 | 0.0 | 0.00 | 0.00 | 0.00 | 97 | 1009.6 |
| 20260506130139 | 74 | 100 | 0.0 | 2.0 | 0.00 | 0.00 | 0.00 | 97 | 1009.6 |
| 20260506125637 | 74 | 102 | 0.0 | 0.0 | 0.00 | 0.00 | 0.00 | 97 | 1009.6 |
| 20260506125134 | 74 | 98 | 0.0 | 0.0 | 0.00 | 0.00 | 0.00 | 97 | 1009.6 |
| 20260506124632 | 74 | 105 | 0.0 | 0.0 | 0.00 | 0.00 | 0.00 | 97 | 1009.7 |
| 20260506124130 | 74 | 102 | 0.0 | 0.0 | 0.00 | 0.00 | 0.00 | 97 | 1009.5 |
| 20260506123627 | 74 | 100 | 0.0 | 0.0 | 0.00 | 0.00 | 0.00 | 97 | 1009.4 |
| 20260506123126 | 74 | 84 | 0.0 | 0.0 | 0.00 | 0.00 | 0.00 | 97 | 1009.3 |
| 20260506122622 | 74 | 105 | 0.0 | 0.0 | 0.00 | 0.00 | 0.00 | 97 | 1009.4 |
| 20260506122120 | 74 | 100 | 0.0 | 0.0 | 0.00 | 0.00 | 0.00 | 97 | 1009.3 |
| 20260506121617 | 74 | 101 | 0.0 | 0.0 | 0.00 | 0.00 | 0.00 | 97 | 1009.3 |
| 20260506121114 | 74 | 107 | 0.0 | 0.0 | 0.00 | 0.00 | 0.00 | 97 | 1009.5 |
| 20260506120612 | 74 | 97 | 0.0 | 0.0 | 0.00 | 0.00 | 0.00 | 97 | 1009.2 |
| 20260506120109 | 74 | 129 | 1.0 | 2.0 | 0.00 | 0.00 | 0.00 | 96 | 1009.3 |
| 20260506115607 | 74 | 113 | 0.0 | 0.0 | 0.00 | 0.00 | 0.00 | 96 | 1009.0 |
| 20260506115105 | 74 | 99 | 0.0 | 0.0 | 0.00 | 0.00 | 0.00 | 96 | 1009.1 |
| 20260506114602 | 74 | 126 | 1.0 | 2.0 | 0.00 | 0.00 | 0.00 | 96 | 1009.1 |
| 20260506114100 | 74 | 139 | 0.0 | 0.0 | 0.00 | 0.00 | 0.00 | 96 | 1009.3 |
| 20260506113558 | 74 | 99 | 0.0 | 0.0 | 0.00 | 0.00 | 0.00 | 96 | 1009.3 |
| 20260506113055 | 74 | 97 | 0.0 | 0.0 | 0.00 | 0.00 | 0.00 | 96 | 1009.2 |
| 20260506112551 | 75 | 116 | 0.0 | 0.0 | 0.00 | 0.00 | 0.00 | 96 | 1009.5 |
| 20260506112049 | 75 | 103 | 0.0 | 0.0 | 0.00 | 0.00 | 0.00 | 96 | 1009.2 |
| 20260506111547 | 75 | 123 | 2.0 | 3.0 | 0.00 | 0.00 | 0.00 | 96 | 1009.3 |
| 20260506111043 | 75 | 90 | 0.0 | 0.0 | 0.00 | 0.00 | 0.00 | 95 | 1009.3 |
| 20260506110541 | 75 | 101 | 1.0 | 2.0 | 0.00 | 0.00 | 0.00 | 96 | 1009.2 |
| 20260506110038 | 75 | 101 | 0.0 | 0.0 | 0.00 | 0.00 | 0.00 | 96 | 1009.3 |
| 20260506105534 | 74 | 100 | 0.0 | 0.0 | 0.00 | 0.00 | 0.00 | 96 | 1009.4 |
| 20260506105032 | 74 | 87 | 1.0 | 2.0 | 0.00 | 0.00 | 0.00 | 96 | 1008.9 |
| 20260506104530 | 74 | 104 | 0.0 | 0.0 | 0.00 | 0.00 | 0.00 | 97 | 1008.8 |
| 20260506104027 | 74 | 106 | 1.0 | 2.0 | 0.00 | 0.00 | 0.00 | 97 | 1008.6 |
| 20260506103524 | 74 | 104 | 0.0 | 0.0 | 0.00 | 0.00 | 0.00 | 97 | 1008.8 |
| 20260506103021 | 74 | 111 | 0.0 | 0.0 | 0.00 | 0.00 | 0.00 | 97 | 1008.8 |
| 20260506102520 | 74 | 112 | 0.0 | 0.0 | 0.00 | 0.00 | 0.00 | 97 | 1008.9 |
| 20260506102016 | 74 | 182 | 2.0 | 3.0 | 0.00 | 0.00 | 0.00 | 96 | 1008.6 |
| 20260506101513 | 74 | 140 | 1.0 | 2.0 | 0.00 | 0.00 | 0.00 | 96 | 1008.6 |
| 20260506101010 | 75 | 102 | 0.0 | 0.0 | 0.00 | 0.00 | 0.00 | 96 | 1008.6 |
| 20260506100509 | 75 | 103 | 0.0 | 0.0 | 0.00 | 0.00 | 0.00 | 96 | 1008.9 |
| 20260506100007 | 75 | 101 | 0.0 | 0.0 | 0.00 | 0.00 | 0.00 | 96 | 1008.6 |
| 20260506095505 | 75 | 173 | 2.0 | 3.0 | 0.00 | 0.00 | 0.00 | 96 | 1008.3 |
| 20260506095000 | 75 | 97 | 0.0 | 0.0 | 0.00 | 0.00 | 0.00 | 96 | 1008.6 |
| 20260506094459 | 75 | 108 | 0.0 | 0.0 | 0.00 | 0.00 | 0.00 | 96 | 1008.5 |
| 20260506093956 | 75 | 100 | 0.0 | 0.0 | 0.00 | 0.00 | 0.00 | 96 | 1008.5 |
| 20260506093454 | 75 | 91 | 0.0 | 0.0 | 0.00 | 0.00 | 0.00 | 96 | 1008.4 |
| 20260506092952 | 75 | 97 | 0.0 | 0.0 | 0.00 | 0.00 | 0.00 | 96 | 1008.2 |
| 20260506092449 | 75 | 105 | 0.0 | 0.0 | 0.00 | 0.00 | 0.00 | 96 | 1008.3 |
| 20260506091945 | 75 | 104 | 0.0 | 0.0 | 0.00 | 0.00 | 0.00 | 96 | 1008.1 |
| 20260506091444 | 74 | 102 | 1.0 | 2.0 | 0.00 | 0.00 | 0.00 | 96 | 1008.2 |
| 20260506090941 | 74 | 148 | 0.0 | 0.0 | 0.00 | 0.00 | 0.00 | 96 | 1007.9 |
| 20260506090439 | 75 | 106 | 0.0 | 2.0 | 0.00 | 0.00 | 0.00 | 96 | 1008.2 |
| 20260506085935 | 75 | 101 | 0.0 | 0.0 | 0.00 | 0.00 | 0.00 | 96 | 1008.2 |
| 20260506085432 | 75 | 108 | 0.0 | 0.0 | 0.00 | 0.00 | 0.00 | 96 | 1008.1 |
| 20260506084928 | 75 | 107 | 0.0 | 0.0 | 0.00 | 0.00 | 0.00 | 96 | 1008.4 |
| 20260506084425 | 75 | 103 | 0.0 | 0.0 | 0.00 | 0.00 | 0.00 | 96 | 1008.3 |
| 20260506083921 | 75 | 104 | 0.0 | 0.0 | 0.00 | 0.00 | 0.00 | 96 | 1008.2 |
| 20260506083419 | 75 | 108 | 0.0 | 0.0 | 0.00 | 0.00 | 0.00 | 96 | 1008.1 |
| 20260506082916 | 75 | 100 | 0.0 | 0.0 | 0.00 | 0.00 | 0.00 | 96 | 1008.0 |
| 20260506082413 | 75 | 175 | 2.0 | 2.0 | 0.00 | 0.00 | 0.00 | 96 | 1008.3 |
| 20260506081908 | 75 | 179 | 3.0 | 3.0 | 0.00 | 0.00 | 0.00 | 96 | 1008.0 |
| 20260506081407 | 75 | 128 | 1.0 | 2.0 | 0.00 | 0.00 | 0.00 | 96 | 1007.8 |
| 20260506080904 | 75 | 181 | 1.0 | 2.0 | 0.00 | 0.00 | 0.00 | 96 | 1007.9 |
| 20260506080400 | 75 | 22 | 1.0 | 2.0 | 0.00 | 0.00 | 0.00 | 96 | 1007.9 |
| 20260506073344 | 75 | 146 | 1.0 | 2.0 | 0.00 | 0.00 | 0.00 | 95 | 1008.1 |
| 20260506072841 | 75 | 73 | 2.0 | 3.0 | 0.00 | 0.00 | 0.00 | 95 | 1008.2 |
| 20260506072339 | 75 | 142 | 0.0 | 0.0 | 0.00 | 0.00 | 0.00 | 95 | 1007.9 |
| 20260506071837 | 75 | 207 | 4.0 | 9.0 | 0.00 | 0.00 | 0.00 | 95 | 1008.4 |
| 20260506071335 | 75 | 234 | 3.0 | 3.0 | 0.00 | 0.00 | 0.00 | 95 | 1008.4 |
| 20260506070831 | 75 | 200 | 0.0 | 2.0 | 0.00 | 0.00 | 0.00 | 95 | 1008.0 |
| 20260506070328 | 75 | 123 | 2.0 | 3.0 | 0.00 | 0.00 | 0.00 | 95 | 1008.0 |
| 20260506062300 | 75 | 60 | 5.0 | 6.0 | 0.00 | 0.00 | 0.00 | 95 | 1008.2 |
| 20260506061756 | 75 | 125 | 0.0 | 0.0 | 0.00 | 0.00 | 0.00 | 95 | 1008.0 |
| 20260506061253 | 75 | 176 | 2.0 | 2.0 | 0.00 | 0.00 | 0.00 | 95 | 1008.0 |
| 20260506060751 | 75 | 168 | 1.0 | 3.0 | 0.00 | 0.00 | 0.00 | 95 | 1008.3 |
| 20260506060249 | 75 | 78 | 2.0 | 3.0 | 0.00 | 0.00 | 0.00 | 94 | 1008.4 |
| 20260506051220 | 75 | 157 | 2.0 | 3.0 | 0.00 | 0.00 | 0.00 | 95 | 1008.2 |
| 20260506050719 | 75 | 174 | 2.0 | 3.0 | 0.00 | 0.00 | 0.00 | 95 | 1008.2 |
| 20260506050215 | 75 | 105 | 2.0 | 3.0 | 0.00 | 0.00 | 0.00 | 95 | 1008.4 |
| 20260506044707 | 75 | 110 | 2.0 | 3.0 | 0.00 | 0.00 | 0.00 | 95 | 1008.4 |
| 20260506044203 | 75 | 103 | 1.0 | 2.0 | 0.00 | 0.00 | 0.00 | 95 | 1008.4 |
| 20260506043701 | 75 | 120 | 0.0 | 2.0 | 0.00 | 0.00 | 0.00 | 95 | 1008.5 |
| 20260506043159 | 75 | 120 | 0.0 | 0.0 | 0.00 | 0.00 | 0.00 | 94 | 1008.3 |
| 20260506042657 | 75 | 147 | 0.0 | 0.0 | 0.00 | 0.00 | 0.00 | 94 | 1008.3 |
| 20260506042154 | 75 | 94 | 0.0 | 0.0 | 0.00 | 0.00 | 0.00 | 94 | 1008.3 |
| 20260506041653 | 75 | 106 | 0.0 | 0.0 | 0.00 | 0.00 | 0.00 | 94 | 1008.3 |
| 20260506041149 | 75 | 146 | 2.0 | 3.0 | 0.00 | 0.00 | 0.00 | 93 | 1008.2 |
| 20260506040647 | 75 | 164 | 2.0 | 3.0 | 0.00 | 0.00 | 0.00 | 93 | 1008.0 |
| 20260506040143 | 75 | 174 | 2.0 | 2.0 | 0.00 | 0.00 | 0.00 | 93 | 1008.0 |
| 20260506035641 | 75 | 102 | 1.0 | 2.0 | 0.00 | 0.00 | 0.00 | 93 | 1008.0 |
| 20260506035137 | 75 | 212 | 3.0 | 3.0 | 0.00 | 0.00 | 0.00 | 93 | 1008.0 |
| 20260506034634 | 75 | 222 | 2.0 | 3.0 | 0.00 | 0.00 | 0.00 | 93 | 1007.9 |
| 20260506034131 | 76 | 125 | 4.0 | 6.0 | 0.00 | 0.00 | 0.00 | 93 | 1007.9 |
| 20260506033628 | 76 | 93 | 2.0 | 3.0 | 0.00 | 0.00 | 0.00 | 92 | 1007.9 |
| 20260506033125 | 76 | 112 | 1.0 | 2.0 | 0.00 | 0.00 | 0.00 | 92 | 1007.7 |
| 20260506032623 | 76 | 249 | 2.0 | 3.0 | 0.00 | 0.00 | 0.00 | 92 | 1007.5 |
| 20260506032119 | 76 | 197 | 2.0 | 3.0 | 0.00 | 0.00 | 0.00 | 92 | 1007.5 |
| 20260506031616 | 76 | 190 | 1.0 | 2.0 | 0.00 | 0.00 | 0.00 | 92 | 1007.2 |
| 20260506031113 | 76 | 194 | 3.0 | 3.0 | 0.00 | 0.00 | 0.00 | 92 | 1007.1 |
| 20260506030612 | 76 | 87 | 4.0 | 6.0 | 0.00 | 0.00 | 0.00 | 91 | 1007.3 |
| 20260506030109 | 76 | 207 | 3.0 | 5.0 | 0.00 | 0.00 | 0.00 | 91 | 1007.2 |
| 20260506025606 | 76 | 116 | 0.0 | 2.0 | 0.00 | 0.00 | 0.00 | 92 | 1007.1 |
| 20260506025101 | 76 | 257 | 1.0 | 2.0 | 0.00 | 0.00 | 0.00 | 92 | 1007.0 |
| 20260506024559 | 76 | 129 | 1.0 | 2.0 | 0.00 | 0.00 | 0.00 | 92 | 1007.1 |
| 20260506024055 | 76 | 123 | 1.0 | 2.0 | 0.00 | 0.00 | 0.00 | 92 | 1006.7 |
| 20260506023551 | 76 | 87 | 1.0 | 2.0 | 0.00 | 0.00 | 0.00 | 92 | 1006.5 |
| 20260506023049 | 76 | 94 | 0.0 | 0.0 | 0.00 | 0.00 | 0.00 | 92 | 1006.5 |
| 20260506022546 | 77 | 118 | 2.0 | 2.0 | 0.00 | 0.00 | 0.00 | 92 | 1006.5 |
| 20260506022044 | 77 | 126 | 0.0 | 2.0 | 0.00 | 0.00 | 0.00 | 92 | 1006.7 |
| 20260506021541 | 77 | 102 | 0.0 | 0.0 | 0.00 | 0.00 | 0.00 | 91 | 1006.5 |
| 20260506021038 | 77 | 110 | 1.0 | 2.0 | 0.00 | 0.00 | 0.00 | 91 | 1006.3 |
| 20260506020536 | 77 | 110 | 0.0 | 0.0 | 0.00 | 0.00 | 0.00 | 90 | 1006.2 |
| 20260506020033 | 77 | 124 | 1.0 | 2.0 | 0.00 | 0.00 | 0.00 | 90 | 1006.4 |
| 20260506015531 | 78 | 135 | 0.0 | 0.0 | 0.00 | 0.00 | 0.00 | 89 | 1006.2 |
| 20260506015028 | 78 | 155 | 1.0 | 2.0 | 0.00 | 0.00 | 0.00 | 89 | 1006.2 |
| 20260506014525 | 78 | 145 | 2.0 | 2.0 | 0.00 | 0.00 | 0.00 | 88 | 1006.3 |
| 20260506014021 | 78 | 104 | 0.0 | 0.0 | 0.00 | 0.00 | 0.00 | 88 | 1006.3 |
| 20260506013519 | 78 | 105 | 1.0 | 2.0 | 0.00 | 0.00 | 0.00 | 88 | 1006.3 |
| 20260506013016 | 78 | 101 | 0.0 | 0.0 | 0.00 | 0.00 | 0.00 | 88 | 1006.0 |
| 20260506012512 | 79 | 111 | 0.0 | 0.0 | 0.00 | 0.00 | 0.00 | 87 | 1006.0 |
| 20260506012009 | 79 | 101 | 0.0 | 0.0 | 0.00 | 0.00 | 0.00 | 87 | 1006.0 |
| 20260506011506 | 79 | 134 | 3.0 | 3.0 | 0.00 | 0.00 | 0.00 | 87 | 1006.2 |
| 20260506011002 | 79 | 109 | 0.0 | 0.0 | 0.00 | 0.00 | 0.00 | 86 | 1006.0 |
| 20260506010502 | 80 | 110 | 0.0 | 0.0 | 0.00 | 0.00 | 0.00 | 85 | 1006.3 |
| 20260506005957 | 80 | 117 | 1.0 | 2.0 | 0.00 | 0.00 | 0.00 | 85 | 1006.0 |
| 20260506005455 | 80 | 110 | 0.0 | 0.0 | 0.00 | 0.00 | 0.00 | 84 | 1006.0 |
| 20260506004950 | 81 | 102 | 0.0 | 0.0 | 0.00 | 0.00 | 0.00 | 84 | 1006.0 |
| 20260506004449 | 81 | 97 | 1.0 | 2.0 | 0.00 | 0.00 | 0.00 | 83 | 1006.2 |
| 20260506003944 | 81 | 99 | 0.0 | 0.0 | 0.00 | 0.00 | 0.00 | 83 | 1006.1 |
| 20260506003441 | 81 | 137 | 2.0 | 2.0 | 0.00 | 0.00 | 0.00 | 83 | 1006.0 |
| 20260506002937 | 81 | 113 | 0.0 | 0.0 | 0.00 | 0.00 | 0.00 | 82 | 1005.8 |
| 20260506002433 | 81 | 102 | 0.0 | 0.0 | 0.00 | 0.00 | 0.00 | 82 | 1006.1 |
| 20260506001929 | 81 | 104 | 0.0 | 0.0 | 0.00 | 0.00 | 0.00 | 82 | 1005.9 |
| 20260506001426 | 81 | 174 | 2.0 | 2.0 | 0.00 | 0.00 | 0.00 | 81 | 1005.9 |
| 20260506000923 | 82 | 125 | 1.0 | 2.0 | 0.00 | 0.00 | 0.00 | 81 | 1006.2 |
| 20260506000423 | 82 | 100 | 0.0 | 0.0 | 0.00 | 0.00 | 0.00 | 82 | 1005.9 |
| 20260505235917 | 82 | 103 | 0.0 | 0.0 | 0.00 | 0.00 | 0.00 | 81 | 1005.7 |
| 20260505235416 | 82 | 135 | 2.0 | 2.0 | 0.00 | 0.00 | 0.00 | 81 | 1005.7 |
| 20260505234912 | 82 | 67 | 0.0 | 0.0 | 0.00 | 0.00 | 0.00 | 81 | 1005.7 |
| 20260505234410 | 82 | 224 | 2.0 | 3.0 | 0.00 | 0.00 | 0.00 | 80 | 1005.5 |
| 20260505233906 | 82 | 107 | 2.0 | 2.0 | 0.00 | 0.00 | 0.00 | 80 | 1005.5 |
| 20260505233404 | 82 | 147 | 3.0 | 5.0 | 0.00 | 0.00 | 0.00 | 80 | 1005.4 |
| 20260505232901 | 82 | 131 | 2.0 | 3.0 | 0.00 | 0.00 | 0.00 | 80 | 1005.5 |
| 20260505232359 | 82 | 126 | 2.0 | 3.0 | 0.00 | 0.00 | 0.00 | 80 | 1005.2 |
| 20260505231855 | 82 | 89 | 0.0 | 2.0 | 0.00 | 0.00 | 0.00 | 80 | 1005.3 |
| 20260505231353 | 82 | 267 | 3.0 | 5.0 | 0.00 | 0.00 | 0.00 | 79 | 1005.5 |
| 20260505230851 | 82 | 102 | 1.0 | 2.0 | 0.00 | 0.00 | 0.00 | 79 | 1005.4 |
| 20260505230348 | 82 | 207 | 2.0 | 3.0 | 0.00 | 0.00 | 0.00 | 79 | 1005.3 |
| 20260505225845 | 82 | 145 | 0.0 | 2.0 | 0.00 | 0.00 | 0.00 | 79 | 1005.4 |
| 20260505225342 | 83 | 241 | 4.0 | 6.0 | 0.00 | 0.00 | 0.00 | 78 | 1005.4 |
| 20260505224837 | 83 | 72 | 1.0 | 2.0 | 0.00 | 0.00 | 0.00 | 78 | 1005.5 |
| 20260505224335 | 83 | 135 | 1.0 | 2.0 | 0.00 | 0.00 | 0.00 | 78 | 1005.3 |
| 20260505223832 | 83 | 183 | 3.0 | 5.0 | 0.00 | 0.00 | 0.00 | 78 | 1005.4 |
| 20260505223329 | 83 | 87 | 1.0 | 2.0 | 0.00 | 0.00 | 0.00 | 78 | 1005.3 |
| 20260505222825 | 83 | 220 | 5.0 | 6.0 | 0.00 | 0.00 | 0.00 | 78 | 1005.4 |
| 20260505222321 | 83 | 159 | 3.0 | 3.0 | 0.00 | 0.00 | 0.00 | 78 | 1005.5 |
| 20260505221818 | 83 | 158 | 3.0 | 5.0 | 0.00 | 0.00 | 0.00 | 78 | 1005.5 |
| 20260505221315 | 83 | 109 | 1.0 | 2.0 | 0.00 | 0.00 | 0.00 | 77 | 1005.5 |
| 20260505220812 | 84 | 200 | 5.0 | 9.0 | 0.00 | 0.00 | 0.00 | 76 | 1005.7 |
| 20260505220309 | 84 | 59 | 3.0 | 5.0 | 0.00 | 0.00 | 0.00 | 77 | 1005.8 |
| 20260505215807 | 84 | 157 | 1.0 | 2.0 | 0.00 | 0.00 | 0.00 | 77 | 1005.6 |
| 20260505215305 | 84 | 230 | 3.0 | 3.0 | 0.00 | 0.00 | 0.00 | 77 | 1006.0 |
| 20260505214802 | 84 | 227 | 5.0 | 8.0 | 0.00 | 0.00 | 0.00 | 76 | 1005.8 |
| 20260505214300 | 84 | 221 | 6.0 | 9.0 | 0.00 | 0.00 | 0.00 | 76 | 1005.7 |
| 20260505213756 | 84 | 152 | 5.0 | 9.0 | 0.00 | 0.00 | 0.00 | 76 | 1005.7 |
| 20260505213254 | 84 | 155 | 0.0 | 2.0 | 0.00 | 0.00 | 0.00 | 77 | 1005.8 |
| 20260505212749 | 83 | 132 | 0.0 | 2.0 | 0.00 | 0.00 | 0.00 | 79 | 1006.2 |
| 20260505212247 | 83 | 189 | 3.0 | 3.0 | 0.00 | 0.00 | 0.00 | 78 | 1006.1 |
| 20260505211744 | 83 | 202 | 3.0 | 5.0 | 0.00 | 0.00 | 0.00 | 79 | 1006.1 |
| 20260505211242 | 83 | 203 | 3.0 | 5.0 | 0.00 | 0.00 | 0.00 | 78 | 1006.0 |
| 20260505210737 | 82 | 88 | 2.0 | 3.0 | 0.00 | 0.00 | 0.00 | 79 | 1006.3 |
| 20260505210235 | 82 | 129 | 3.0 | 5.0 | 0.00 | 0.00 | 0.00 | 78 | 1006.5 |
| 20260505205732 | 83 | 222 | 6.0 | 8.0 | 0.00 | 0.00 | 0.00 | 78 | 1006.6 |
| 20260505205230 | 82 | 189 | 4.0 | 6.0 | 0.00 | 0.00 | 0.00 | 79 | 1006.5 |
| 20260505204726 | 82 | 176 | 4.0 | 6.0 | 0.00 | 0.00 | 0.00 | 80 | 1006.7 |
| 20260505204224 | 83 | 119 | 2.0 | 3.0 | 0.00 | 0.00 | 0.00 | 79 | 1006.6 |
| 20260505203721 | 83 | 147 | 1.0 | 2.0 | 0.00 | 0.00 | 0.00 | 79 | 1006.6 |
| 20260505203218 | 84 | 120 | 2.0 | 3.0 | 0.00 | 0.00 | 0.00 | 77 | 1006.9 |
| 20260505202714 | 84 | 257 | 1.0 | 2.0 | 0.00 | 0.00 | 0.00 | 79 | 1007.0 |
| 20260505202210 | 83 | 200 | 3.0 | 6.0 | 0.00 | 0.00 | 0.00 | 77 | 1007.0 |
| 20260505201706 | 82 | 225 | 0.0 | 2.0 | 0.00 | 0.00 | 0.00 | 80 | 1006.9 |
| 20260505201205 | 82 | 136 | 5.0 | 8.0 | 0.00 | 0.00 | 0.00 | 79 | 1007.0 |
| 20260505200702 | 81 | 152 | 2.0 | 3.0 | 0.00 | 0.00 | 0.00 | 81 | 1007.1 |
| 20260505200159 | 81 | 91 | 4.0 | 6.0 | 0.00 | 0.00 | 0.00 | 80 | 1007.2 |
| 20260505195655 | 80 | 113 | 1.0 | 2.0 | 0.00 | 0.00 | 0.00 | 81 | 1007.0 |
| 20260505195152 | 80 | 239 | 2.0 | 2.0 | 0.00 | 0.00 | 0.00 | 83 | 1007.3 |
| 20260505194649 | 80 | 237 | 3.0 | 6.0 | 0.00 | 0.00 | 0.00 | 81 | 1007.5 |
| 20260505194145 | 81 | 169 | 2.0 | 3.0 | 0.00 | 0.00 | 0.00 | 82 | 1007.5 |
| 20260505193642 | 80 | 90 | 0.0 | 2.0 | 0.00 | 0.00 | 0.00 | 82 | 1007.3 |
| 20260505193139 | 80 | 214 | 3.0 | 6.0 | 0.00 | 0.00 | 0.00 | 82 | 1007.5 |
| 20260505192638 | 80 | 225 | 2.0 | 3.0 | 0.00 | 0.00 | 0.00 | 83 | 1007.7 |
| 20260505192135 | 80 | 88 | 2.0 | 2.0 | 0.00 | 0.00 | 0.00 | 83 | 1007.9 |
| 20260505191633 | 79 | 106 | 1.0 | 2.0 | 0.00 | 0.00 | 0.00 | 84 | 1007.8 |
| 20260505191131 | 79 | 83 | 0.0 | 2.0 | 0.00 | 0.00 | 0.00 | 84 | 1007.8 |
| 20260505190627 | 78 | 180 | 3.0 | 5.0 | 0.00 | 0.00 | 0.00 | 84 | 1007.7 |
| 20260505190127 | 78 | 90 | 0.0 | 0.0 | 0.00 | 0.00 | 0.00 | 84 | 1007.8 |
| 20260505185624 | 78 | 114 | 1.0 | 2.0 | 0.00 | 0.00 | 0.00 | 85 | 1007.9 |
| 20260505185121 | 78 | 103 | 1.0 | 2.0 | 0.00 | 0.00 | 0.00 | 85 | 1007.9 |
| 20260505184617 | 78 | 93 | 1.0 | 2.0 | 0.00 | 0.00 | 0.00 | 85 | 1008.0 |
| 20260505184114 | 78 | 217 | 5.0 | 6.0 | 0.00 | 0.00 | 0.00 | 84 | 1008.2 |
| 20260505183610 | 78 | 82 | 1.0 | 2.0 | 0.00 | 0.00 | 0.00 | 85 | 1008.0 |
| 20260505183108 | 78 | 116 | 2.0 | 3.0 | 0.00 | 0.00 | 0.00 | 84 | 1008.2 |
| 20260505182604 | 78 | 138 | 1.0 | 2.0 | 0.00 | 0.00 | 0.00 | 84 | 1008.1 |
| 20260505182101 | 78 | 192 | 3.0 | 9.0 | 0.00 | 0.00 | 0.00 | 86 | 1008.3 |
| 20260505181558 | 77 | 116 | 1.0 | 2.0 | 0.00 | 0.00 | 0.00 | 87 | 1008.1 |
| 20260505181055 | 77 | 62 | 2.0 | 2.0 | 0.00 | 0.00 | 0.00 | 86 | 1008.4 |
| 20260505180550 | 77 | 235 | 2.0 | 3.0 | 0.00 | 0.00 | 0.00 | 86 | 1008.2 |
| 20260505180049 | 78 | 216 | 7.0 | 8.0 | 0.00 | 0.00 | 0.00 | 85 | 1008.4 |
| 20260505175549 | 78 | 223 | 3.0 | 3.0 | 0.00 | 0.00 | 0.00 | 85 | 1008.3 |
| 20260505175046 | 78 | 167 | 2.0 | 3.0 | 0.00 | 0.00 | 0.00 | 86 | 1008.2 |
| 20260505174538 | 77 | 164 | 4.0 | 5.0 | 0.00 | 0.00 | 0.00 | 86 | 1008.3 |
| 20260505174034 | 76 | 106 | 1.0 | 2.0 | 0.00 | 0.00 | 0.00 | 87 | 1008.6 |